IRNSS-1B

Last updated on July 29, 2020, 7 a.m. UTC

1 39635U 14017A   20202.13758595  .00000113  00000-0  00000+0 0  9992
2 39635  28.5057 276.6608 0022042 187.6475 299.1310  1.00283016 23166
UTC
Height (km)
Latitude
Longitude
Inclination
Orbital Period
UTC large
Height (km)
Speed (km/s)
/
Latitude / Longitude
Inclination (degrees)
Orbital Period (minutes)
Azimuth
Elevation
Range (km)
Doppler Factor
iOS Compass Heading
iOS Angle

Next 30 passes for location: Hong Kong

Rise time Rise Azimuth (degrees) Set time Set Azimuth (degrees) Duration Max altitude (degrees)

No matching passes for this satellites